USA 169 (MILSTAR-2 4)

Last updated on Tue Oct 08 2024 00:02:37 GMT+0000 (Coordinated Universal Time)

1 27711U 03012A 24281.54289505 -.00000183 00000+0 00000+0 0 9990 2 27711 11.4025 34.5533 0096265 4.6451 325.0838 1.00274168 26752
UTC large
Height (km)
Speed (km/s)
/
Latitude / Longitude
Inclination (degrees)
Orbital Period (minutes)
Azimuth
Elevation
Range (km)
Doppler Factor

Next 0 passes for location: London (51.5072 / 0.1276)

Sorry there are no passes over London.